Location: Azul
(36.7830°S, 59.8500°W)
Time: 10:19:39
(UTC-03:00)

NOAA 19 - Pass Details

Date: 27 October 2021
Orbit: 840 x 861 km, 99.2° (Epoch: 07 December)

Event Time Altitude Azimuth Distance (km) Brightness Sun altitude
Rises 21:01:41 0° 173° (S) 3,473 8.7 -17.9°
Reaches altitude 10° 21:04:08 10° 178° (S) 2,530 8.1 -18.3°
Maximum altitude 21:09:32 50° 251° (WSW) 1,102 6.2 -19.2°
Drops below altitude 10° 21:14:52 10° 324° (NW) 2,497 7.7 -20.1°
Sets 21:17:17 0° 329° (NNW) 3,424 8.3 -20.5°
